Location: Anglesey
(53.1800°N, 4.2200°W)
Time: 11:59:09
(UTC+00:00)

Envisat - Pass Details

Date: 09 October 2017
Orbit: 764 x 766 km, 98.2° (Epoch: 11 December)

Event Time Altitude Azimuth Distance (km) Brightness Sun altitude
Exits shadow 21:44:02 21° 214° (SW) 1,676 4.7 -28.3°
Maximum altitude 21:46:43 34° 265° (W) 1,240 4.4 -28.7°
Drops below altitude 10° 21:51:22 10° 330° (NNW) 2,318 6.2 -29.3°
Sets 21:53:53 0° 340° (NNW) 3,250 7.0 -29.6°
